EW0641 Weather Reports


Display with metric or nautical units.
time (UTC)temp
F
wind
direction
speed
MPH
gust
MPH
rain 1hr
in
rain 24hr
in
rain mn
in
humidity
%
barometer
mb
20260504234559 72 286 0.0 0.0 0.00 0.00 0.00 57 999.2
20260504233101 75 277 0.0 0.0 0.00 0.00 0.00 52 998.5
20260504231557 75 240 0.0 0.0 0.00 0.00 0.00 51 998.5
20260504230107 76 235 0.0 0.0 0.00 0.00 0.00 53 998.5
20260504224558 76 262 0.0 0.0 0.00 0.00 0.00 52 998.4
20260504223058 76 223 0.0 0.0 0.00 0.00 0.00 52 998.8
20260504221601 76 262 0.0 0.0 0.00 0.00 0.00 51 998.9
20260504220049 76 265 0.0 0.0 0.00 0.00 0.00 51 999.2
20260504214547 75 235 0.0 0.0 0.00 0.00 0.00 50 999.4
20260504213046 75 248 0.0 0.0 0.00 0.00 0.00 49 999.7
20260504211546 74 240 0.0 0.0 0.00 0.00 0.00 48 999.8
20260504210044 74 221 0.0 0.0 0.00 0.00 0.00 46 1000.1
20260504204541 75 245 0.0 0.0 0.00 0.00 0.00 44 1000.2
20260504203040 75 242 0.0 0.0 0.00 0.00 0.00 43 1000.2
20260504201539 75 263 0.0 0.0 0.00 0.00 0.00 43 1000.1
20260504200039 75 241 0.0 0.0 0.00 0.00 0.00 41 1000.4
20260504194538 75 242 0.0 0.0 0.00 0.00 0.00 43 1000.6
20260504193035 75 246 0.0 0.0 0.00 0.00 0.00 41 1000.7
20260504191539 75 232 0.0 0.0 0.00 0.00 0.00 42 1000.9
20260504190030 75 248 0.0 0.0 0.00 0.00 0.00 45 1001.1
20260504184529 75 292 0.0 0.0 0.00 0.00 0.00 44 1001.4
20260504183028 74 226 0.0 0.0 0.00 0.00 0.00 50 1001.4
20260504181528 74 252 0.0 0.0 0.00 0.00 0.00 49 1001.5
20260504180021 73 255 0.0 0.0 0.00 0.00 0.00 50 1001.8
20260504174520 73 257 0.0 0.0 0.00 0.00 0.00 52 1002.2
20260504173017 71 263 0.0 0.0 0.00 0.00 0.00 54 1002.4
20260504171512 71 248 0.0 0.0 0.00 0.00 0.00 56 1002.6
20260504160108 68 248 0.0 0.0 0.00 0.00 0.00 57 1003.7
20260504081501 52 229 0.0 0.0 0.00 0.00 0.00 70 1005.6
20260504080104 52 229 0.0 0.0 0.00 0.00 0.00 70 1005.8
20260504044535 53 223 0.0 0.0 0.00 0.00 0.00 71 1008.3
20260504043032 53 230 0.0 0.0 0.00 0.00 0.00 71 1008.5
20260504041530 53 260 0.0 0.0 0.00 0.00 0.00 72 1008.6
20260504040028 53 193 0.0 0.0 0.00 0.00 0.00 72 1008.8
20260504034528 53 230 0.0 0.0 0.00 0.00 0.00 74 1008.9
20260504033027 52 234 0.0 0.0 0.00 0.00 0.00 75 1009.1
20260504031526 52 247 0.0 0.0 0.00 0.00 0.00 74 1009.2
20260504030025 53 237 0.0 0.0 0.00 0.00 0.00 74 1009.4
20260504024524 53 214 0.0 0.0 0.00 0.00 0.00 71 1009.5
20260504023023 54 242 0.0 0.0 0.00 0.00 0.00 66 1009.5
20260504021522 54 205 0.0 0.0 0.00 0.00 0.00 65 1009.5
20260504020025 55 215 0.0 0.0 0.00 0.00 0.00 64 1009.6
20260504014522 55 219 0.0 0.0 0.00 0.00 0.00 63 1009.5
20260504013031 56 227 0.0 0.0 0.00 0.00 0.00 62 1009.5
20260504011520 56 228 0.0 0.0 0.00 0.00 0.00 61 1009.4
20260504010020 57 241 0.0 0.0 0.00 0.00 0.00 59 1009.5
20260504004520 57 266 0.0 0.0 0.00 0.00 0.00 59 1009.5
20260504003023 58 199 0.0 0.0 0.00 0.00 0.00 57 1009.3
20260504001521 60 238 0.0 0.0 0.00 0.00 0.00 56 1009.2
20260504000045 60 256 0.0 0.0 0.00 0.00 0.00 50 1008.8